Location: Beaver Meadows
(40.3729°N, 105.6140°W)
Time: 20:08:32
(UTC-06:00)

Iridium 67 - Visible Passes

Search period start: 28 July 2016 00:00
Search period end: 07 August 2016 00:00
Orbit: 776 x 779 km, 86.4° (Epoch: 28 July)

Date Brightness Start Highest point End Pass type
(mag) Time Alt. Az. Time Alt. Az. Time Alt. Az.
28 Jul 8.2 03:16:31 10° ESE 03:18:56 13° ENE 03:21:22 10° NE visible
28 Jul 5.5 04:53:49 10° S 04:58:59 67° W 05:04:11 10° N visible
29 Jul 5.9 04:20:20 10° S 04:25:29 66° E 04:30:39 10° N visible
30 Jul 6.9 03:47:25 10° SSE 03:52:06 35° E 03:56:48 10° NNE visible
31 Jul 7.8 03:15:12 10° SE 03:18:50 20° E 03:22:28 10° NE visible
31 Jul 5.9 04:54:23 11° SSW 04:59:09 46° W 05:04:09 10° N visible
01 Aug 8.4 02:45:12 10° E 02:45:41 10° ENE 02:46:11 10° ENE visible
01 Aug 5.5 04:21:24 16° S 04:25:34 86° W 04:30:48 10° N visible
02 Aug 6.2 03:48:24 18° SSE 03:52:07 51° E 03:57:09 10° NNE visible
02 Aug 7.1 05:29:41 10° WSW 05:33:09 18° WNW 05:36:37 10° NNW visible
03 Aug 7.2 03:15:23 15° SE 03:18:47 28° E 03:23:08 10° NNE visible
03 Aug 6.4 04:55:52 16° SW 04:59:21 32° W 05:04:00 10° NNW visible
04 Aug 8.0 02:42:38 10° ESE 02:45:33 15° ENE 02:48:30 10° NE visible
04 Aug 5.6 04:22:50 26° SSW 04:25:42 59° W 04:30:51 10° N visible
05 Aug 5.6 03:49:46 33° S 03:52:10 75° E 03:57:23 10° N visible
05 Aug 7.4 05:31:29 10° W 05:33:29 12° WNW 05:35:31 10° NW visible
06 Aug 6.6 03:16:41 28° SE 03:18:46 40° E 03:23:36 10° NNE visible
06 Aug 6.8 04:57:10 16° WSW 04:59:37 22° WNW 05:03:39 10° NNW visible
